GW1598 Weather Reports


time (UTC)temp
C
wind
direction
speed
KPH
gust
KPH
rain 1hr
cm
rain 24hr
cm
rain mn
cm
humidity
%
barometer
mb
20260906125141 21 304 0.0 4.8 0.00 0.00 0.00 97 1009.1
20260906124724 21 304 0.0 4.8 0.00 0.00 0.00 97 1009.1
20260906124252 21 272 0.0 6.4 0.00 0.00 0.00 98 1009.1
20260906123820 21 272 0.0 6.4 0.00 0.00 0.00 98 1009.1
20260906123348 21 272 0.0 6.4 0.00 0.00 0.00 98 1009.1
20260906122916 21 264 3.2 6.4 0.00 0.00 0.00 99 1009.1
20260906122500 21 264 3.2 6.4 0.00 0.00 0.00 99 1009.1
20260906121610 21 264 3.2 6.4 0.00 0.00 0.00 99 1009.1
20260906120650 21 289 1.6 8.0 0.00 0.00 0.00 99 1009.1
20260906120220 21 289 1.6 8.0 0.00 0.00 0.00 99 1009.1
20260906115749 21 258 1.6 1.6 0.00 0.00 0.00 100 1008.8
20260906114843 21 258 1.6 1.6 0.00 0.00 0.00 100 1008.8
20260906114428 21 258 0.0 6.4 0.00 0.00 0.00 100 1008.4
20260906113511 21 258 0.0 6.4 0.00 0.00 0.00 100 1008.4
20260906112552 21 241 0.0 0.0 0.00 0.00 0.00 100 1008.4
20260906111635 21 241 0.0 0.0 0.00 0.00 0.00 100 1008.4
20260906111116 21 241 0.0 4.8 0.00 0.00 0.00 100 1008.1
20260906110700 21 241 0.0 4.8 0.00 0.00 0.00 100 1008.1
20260906110230 21 241 0.0 4.8 0.00 0.00 0.00 100 1008.1
20260906105710 21 240 4.8 6.4 0.00 0.00 0.00 100 1007.7
20260906104753 21 240 4.8 6.4 0.00 0.00 0.00 100 1007.7
20260906104337 21 254 3.2 6.4 0.00 0.00 0.00 100 1007.7
20260906103920 21 254 3.2 6.4 0.00 0.00 0.00 100 1007.7
20260906103503 21 254 3.2 6.4 0.00 0.00 0.00 100 1007.7
20260906102545 21 232 0.0 0.0 0.00 0.00 0.00 100 1007.7
20260906102115 21 232 0.0 0.0 0.00 0.00 0.00 100 1007.7
20260906101659 21 232 0.0 0.0 0.00 0.00 0.00 100 1007.7
20260906101125 21 232 0.0 0.0 0.00 0.00 0.00 100 1007.7
20260906100223 21 232 0.0 0.0 0.00 0.00 0.00 100 1007.7
20260906095217 21 232 0.0 6.4 0.00 0.00 0.00 100 1007.7
20260906094759 21 232 0.0 6.4 0.00 0.00 0.00 100 1007.7
20260906094315 21 232 0.0 0.0 0.00 0.00 0.00 100 1007.7
20260906093842 21 232 0.0 0.0 0.00 0.00 0.00 100 1007.7
20260906093426 21 232 0.0 0.0 0.00 0.00 0.00 100 1007.7
20260906093010 20 232 0.0 0.0 0.00 0.00 0.00 100 1007.7
20260906092553 20 232 0.0 0.0 0.00 0.00 0.00 100 1007.7
20260906092123 20 232 0.0 0.0 0.00 0.00 0.00 100 1007.7
20260906091652 20 232 0.0 0.0 0.00 0.00 0.00 100 1007.7
20260906091236 20 232 0.0 0.0 0.00 0.00 0.00 100 1007.7
20260906090804 20 232 0.0 0.0 0.00 0.00 0.00 100 1007.7
20260906090315 20 232 0.0 0.0 0.00 0.00 0.00 100 1007.7
20260906085427 20 232 0.0 0.0 0.00 0.00 0.00 100 1007.7
20260906085010 20 232 0.0 0.0 0.00 0.00 0.00 100 1007.7
20260906084539 20 232 0.0 0.0 0.00 0.00 0.00 100 1007.7
20260906084108 20 232 0.0 0.0 0.00 0.00 0.00 100 1007.7
20260906083635 20 232 0.0 0.0 0.00 0.00 0.00 100 1007.7
20260906083219 20 232 0.0 0.0 0.00 0.00 0.00 100 1007.7
20260906082642 20 232 0.0 0.0 0.00 0.00 0.00 100 1007.4
20260906082211 20 232 0.0 0.0 0.00 0.00 0.00 100 1007.4
20260906081252 20 232 0.0 0.0 0.00 0.00 0.00 100 1007.4
20260906080821 20 232 0.0 0.0 0.00 0.00 0.00 100 1007.4
20260906080352 20 232 0.0 0.0 0.00 0.00 0.00 100 1007.4
20260906075935 20 232 0.0 0.0 0.00 0.00 0.00 100 1007.7
20260906075518 20 232 0.0 0.0 0.00 0.00 0.00 100 1007.7
20260906075046 20 232 0.0 0.0 0.00 0.00 0.00 100 1007.7
20260906074631 20 232 0.0 0.0 0.00 0.00 0.00 100 1007.7
20260906074109 20 232 0.0 0.0 0.00 0.00 0.00 100 1007.4
20260906073636 20 232 0.0 0.0 0.00 0.00 0.00 100 1007.4
20260906073221 20 232 0.0 0.0 0.00 0.00 0.00 100 1007.4
20260906072804 20 232 0.0 0.0 0.00 0.00 0.00 100 1007.4
20260906072331 20 232 0.0 0.0 0.00 0.00 0.00 100 1007.4
20260906071900 20 232 0.0 0.0 0.00 0.00 0.00 100 1007.4
20260906071444 20 232 0.0 0.0 0.00 0.00 0.00 100 1007.4
20260906070525 20 232 0.0 0.0 0.00 0.00 0.00 100 1007.4
20260906070056 20 232 0.0 0.0 0.00 0.00 0.00 100 1007.4
20260906065622 21 232 0.0 0.0 0.00 0.00 0.00 100 1007.7
20260906065206 21 232 0.0 0.0 0.00 0.00 0.00 100 1007.7
20260906064735 21 232 0.0 0.0 0.00 0.00 0.00 100 1007.7
20260906064301 21 232 0.0 0.0 0.00 0.00 0.00 100 1007.4
20260906063830 21 232 0.0 0.0 0.00 0.00 0.00 100 1007.4
20260906063412 21 232 0.0 0.0 0.00 0.00 0.00 100 1007.4
20260906062955 21 232 0.0 0.0 0.00 0.00 0.00 100 1007.4
20260906062540 21 232 0.0 0.0 0.00 0.00 0.00 100 1007.4
20260906062107 21 232 0.0 0.0 0.00 0.00 0.00 100 1007.4
20260906061635 21 232 0.0 0.0 0.00 0.00 0.00 100 1007.4
20260906061219 21 232 0.0 0.0 0.00 0.00 0.00 100 1007.7
20260906060801 21 232 0.0 0.0 0.00 0.00 0.00 100 1007.7
20260906060346 21 232 0.0 0.0 0.00 0.00 0.00 100 1007.7
20260906055929 21 232 0.0 0.0 0.00 0.00 0.00 100 1007.7
20260906055513 21 232 0.0 0.0 0.00 0.00 0.00 100 1007.7
20260906055059 21 232 0.0 0.0 0.00 0.00 0.00 100 1007.7
20260906054644 21 232 0.0 0.0 0.00 0.00 0.00 100 1007.7
20260906054157 21 232 0.0 0.0 0.00 0.00 0.00 99 1007.7
20260906053742 21 232 0.0 0.0 0.00 0.00 0.00 99 1007.7
20260906053312 21 232 0.0 0.0 0.00 0.00 0.00 99 1007.7
20260906052841 21 232 0.0 0.0 0.00 0.00 0.00 99 1007.4
20260906052410 21 232 0.0 0.0 0.00 0.00 0.00 99 1007.4
20260906051938 21 232 0.0 0.0 0.00 0.00 0.00 99 1007.4
20260906051507 21 232 0.0 0.0 0.00 0.00 0.00 99 1007.4
20260906051022 21 232 0.0 0.0 0.00 0.00 0.00 99 1007.4
20260906050607 21 232 0.0 0.0 0.00 0.00 0.00 99 1007.4
20260906050137 21 232 0.0 0.0 0.00 0.00 0.00 99 1007.4
20260906045719 21 232 0.0 0.0 0.00 0.00 0.00 99 1007.4
20260906045305 21 232 0.0 0.0 0.00 0.00 0.00 99 1007.4
20260906044847 21 232 0.0 0.0 0.00 0.00 0.00 99 1007.4
20260906044416 21 232 0.0 0.0 0.00 0.00 0.00 99 1007.4
20260906043514 21 232 0.0 0.0 0.00 0.00 0.00 99 1007.4
20260906043044 21 232 0.0 0.0 0.00 0.00 0.00 99 1007.4
20260906042613 21 232 0.0 0.0 0.00 0.00 0.00 99 1007.4
20260906042158 21 232 0.0 0.0 0.00 0.00 0.00 99 1007.4
20260906041136 21 232 0.0 0.0 0.00 0.00 0.00 99 1007.4
20260906040719 21 232 0.0 0.0 0.00 0.00 0.00 99 1007.4
20260906040302 21 232 0.0 0.0 0.00 0.00 0.00 99 1007.4
20260906035728 22 232 0.0 0.0 0.00 0.00 1.60 99 1007.4
20260906035311 22 232 0.0 0.0 0.00 0.00 1.60 99 1007.4
20260906034855 22 232 0.0 0.0 0.00 0.00 1.60 99 1007.4
20260906034440 22 277 0.0 6.4 0.00 0.00 1.60 99 1007.4
20260906033506 22 277 0.0 6.4 0.00 0.00 1.60 99 1007.4
20260906033048 22 227 0.0 0.0 0.00 0.00 1.60 99 1007.7
20260906032617 22 227 0.0 0.0 0.00 0.00 1.60 99 1007.7
20260906032146 22 227 0.0 0.0 0.00 0.00 1.60 99 1007.7
20260906031245 22 227 0.0 0.0 0.00 0.00 1.60 98 1007.7
20260906030340 22 227 0.0 0.0 0.00 0.00 1.60 98 1007.7
20260906025923 22 227 0.0 0.0 0.00 0.00 1.60 98 1007.7
20260906025450 22 227 0.0 0.0 0.00 0.00 1.60 98 1007.7
20260906025019 22 227 0.0 0.0 0.00 0.00 1.60 98 1007.7
20260906023641 22 227 0.0 0.0 0.00 0.00 1.60 98 1007.7
20260906023212 22 227 0.0 0.0 0.00 0.00 1.60 98 1007.7
20260906022740 22 227 0.0 0.0 0.00 0.00 1.60 98 1007.7
20260906022308 22 227 0.0 0.0 0.00 0.00 1.60 98 1007.7
20260906021422 22 227 0.0 0.0 0.00 0.00 1.60 98 1007.7
20260906020045 22 227 0.0 0.0 0.00 0.00 1.60 98 1007.4
20260906015614 22 227 0.0 0.0 0.00 0.00 1.60 98 1007.4
20260906015158 22 227 0.0 0.0 0.00 0.00 1.60 98 1007.4
20260906014726 22 227 0.0 0.0 0.00 0.00 1.60 98 1007.4
20260906014253 22 227 0.0 0.0 0.00 0.00 1.60 97 1007.4
20260906013837 22 227 0.0 0.0 0.00 0.00 1.60 97 1007.4
20260906012946 23 227 0.0 0.0 0.00 0.00 1.60 97 1006.7
20260906012515 23 227 0.0 0.0 0.00 0.00 1.60 97 1006.7
20260906012043 23 227 0.0 0.0 0.00 0.00 1.60 97 1006.7
20260906011627 23 227 0.0 0.0 0.00 0.00 1.60 97 1006.7
20260906011141 23 227 0.0 0.0 0.00 0.00 1.60 96 1006.7
20260906010707 23 227 0.0 0.0 0.00 0.00 1.60 96 1006.7
20260906010237 23 227 0.0 0.0 0.00 0.00 1.60 96 1006.7
20260906005716 23 227 0.0 0.0 0.00 0.00 1.60 96 1006.7
20260906005244 23 227 0.0 0.0 0.00 0.00 1.60 96 1006.7
20260906004813 23 227 0.0 0.0 0.00 0.00 1.60 96 1006.7
20260906004340 23 227 0.0 0.0 0.00 0.00 1.60 95 1006.7
20260906003923 23 227 0.0 0.0 0.00 0.00 1.60 95 1006.7
20260906003506 23 227 0.0 0.0 0.00 0.00 1.60 95 1006.7
20260906002602 24 227 0.0 0.0 0.00 0.00 1.60 94 1006.7
20260906002147 24 227 0.0 0.0 0.00 0.00 1.60 94 1006.7
20260906001729 24 227 0.0 0.0 0.00 0.00 1.60 94 1006.7
20260906001153 25 227 0.0 0.0 0.00 0.00 1.60 93 1006.7
20260906000737 25 227 0.0 0.0 0.00 0.00 1.60 93 1006.7
20260906000308 25 227 0.0 0.0 0.00 0.00 1.60 93 1006.7
20260905235848 25 227 0.0 0.0 0.00 0.00 1.60 91 1006.7
20260905234943 25 227 0.0 0.0 0.00 0.00 1.60 91 1006.7
20260905234526 25 227 0.0 0.0 0.00 0.00 1.60 91 1006.7
20260905234113 25 227 0.0 0.0 0.00 0.00 1.60 91 1006.7
20260905233657 25 227 0.0 0.0 0.00 0.00 1.60 91 1006.7
20260905233242 25 227 0.0 0.0 0.00 0.00 1.60 91 1006.7
20260905232654 26 227 0.0 0.0 0.00 0.00 1.60 87 1006.7
20260905232226 26 227 0.0 0.0 0.00 0.00 1.60 87 1006.7
20260905231756 26 227 0.0 0.0 0.00 0.00 1.60 87 1006.7
20260905231119 26 227 0.0 0.0 0.00 0.00 1.60 86 1006.7
20260905230219 26 227 0.0 0.0 0.00 0.00 1.60 86 1006.7
20260905225643 27 227 0.0 0.0 0.00 0.00 1.60 84 1006.7
20260905224742 27 227 0.0 0.0 0.00 0.00 1.60 84 1006.7
20260905224325 27 227 0.0 0.0 0.00 0.00 1.60 85 1006.7
20260905223906 27 227 0.0 0.0 0.00 0.00 1.60 85 1006.7
20260905223436 27 227 0.0 0.0 0.00 0.00 1.60 85 1006.7
20260905223021 27 227 0.0 0.0 0.00 0.00 1.60 86 1006.7
20260905222606 27 227 0.0 0.0 0.00 0.00 1.60 86 1006.7
20260905222151 27 227 0.0 0.0 0.00 0.00 1.60 86 1006.7
20260905221736 27 227 0.0 0.0 0.00 0.00 1.60 86 1006.7
20260905220730 27 227 0.0 0.0 0.00 0.00 1.60 85 1007.1
20260905215838 28 227 0.0 0.0 0.00 0.00 1.60 83 1006.7
20260905214951 28 227 0.0 0.0 0.00 0.00 1.60 83 1006.7
20260905214521 28 227 0.0 3.2 0.00 0.00 1.60 77 1006.7
20260905214105 28 227 0.0 3.2 0.00 0.00 1.60 77 1006.7
20260905213636 28 227 0.0 3.2 0.00 0.00 1.60 77 1006.7
20260905212252 28 240 1.6 9.7 0.00 0.00 1.60 72 1006.7
20260905211407 29 211 6.4 8.0 0.00 0.00 1.60 72 1006.4
20260905210950 29 211 6.4 8.0 0.00 0.00 1.60 72 1006.4
20260905210536 29 211 6.4 8.0 0.00 0.00 1.60 72 1006.4
20260905210105 29 211 6.4 8.0 0.00 0.00 1.60 72 1006.4
20260905205617 28 239 9.7 9.7 0.00 0.00 1.60 76 1006.7
20260905204719 28 239 9.7 9.7 0.00 0.00 1.60 76 1006.7
20260905204301 29 228 4.8 6.4 0.00 0.00 1.60 71 1006.7
20260905203845 29 228 4.8 6.4 0.00 0.00 1.60 71 1006.7
20260905203430 29 228 4.8 6.4 0.00 0.00 1.60 71 1006.7
20260905203015 28 28 0.0 0.0 0.00 0.00 1.60 75 1006.7
20260905202601 28 28 0.0 0.0 0.00 0.00 1.60 75 1006.7
20260905202147 28 28 0.0 0.0 0.00 0.00 1.60 75 1006.7
20260905201732 28 28 0.0 0.0 0.00 0.00 1.60 75 1006.7
20260905200257 28 327 0.0 4.8 0.00 0.00 1.60 74 1007.1
20260905195412 28 101 1.6 8.0 0.00 0.00 1.60 72 1007.4
20260905194955 28 101 1.6 8.0 0.00 0.00 1.60 72 1007.4
20260905194508 28 101 4.8 11.3 0.00 0.00 1.60 74 1007.4
20260905193605 28 101 4.8 11.3 0.00 0.00 1.60 74 1007.4
20260905193148 28 101 4.8 11.3 0.00 0.00 1.60 74 1007.4
20260905192613 28 82 4.8 6.4 0.00 0.00 1.60 78 1007.7
20260905192142 28 82 4.8 6.4 0.00 0.00 1.60 78 1007.7
20260905191726 28 82 4.8 6.4 0.00 0.00 1.60 78 1007.7
20260905191255 28 39 0.0 4.8 0.00 0.00 1.60 77 1007.7
20260905190840 28 39 0.0 4.8 0.00 0.00 1.60 77 1007.7
20260905190408 28 39 0.0 4.8 0.00 0.00 1.60 77 1007.7
20260905185938 27 13 4.8 6.4 0.00 0.00 1.60 78 1007.7
20260905185522 27 13 4.8 6.4 0.00 0.00 1.60 78 1007.7
20260905185051 27 13 4.8 6.4 0.00 0.00 1.60 78 1007.7
20260905184637 27 13 4.8 6.4 0.00 0.00 1.60 78 1007.7
20260905183632 27 86 4.8 11.3 0.00 0.00 1.60 79 1008.1
20260905183215 27 86 4.8 11.3 0.00 0.00 1.60 79 1008.1
20260905182652 27 27 0.0 11.3 0.00 0.00 1.60 79 1008.1
20260905182223 27 27 0.0 11.3 0.00 0.00 1.60 79 1008.1
20260905181805 27 27 0.0 11.3 0.00 0.00 1.60 79 1008.1
20260905180914 27 108 3.2 9.7 0.00 0.00 1.60 80 1008.1
20260905180013 27 96 0.0 12.9 0.00 0.00 1.60 79 1008.4
20260905175557 27 96 0.0 12.9 0.00 0.00 1.60 79 1008.4
20260905175143 27 96 0.0 12.9 0.00 0.00 1.60 79 1008.4
20260905174726 27 96 0.0 12.9 0.00 0.00 1.60 79 1008.4
20260905174257 26 143 1.6 8.0 0.00 0.00 1.60 82 1008.4
20260905173842 26 143 1.6 8.0 0.00 0.00 1.60 82 1008.4
20260905172955 26 82 4.8 11.3 0.00 0.00 1.60 83 1008.4
20260905172539 26 82 4.8 11.3 0.00 0.00 1.60 83 1008.4
20260905172109 26 82 4.8 11.3 0.00 0.00 1.60 83 1008.4
20260905171651 26 82 4.8 11.3 0.00 0.00 1.60 83 1008.4
20260905171238 26 89 11.3 14.5 0.00 0.00 1.60 83 1008.4
20260905170805 26 89 11.3 14.5 0.00 0.00 1.60 83 1008.4
20260905170335 26 89 11.3 14.5 0.00 0.00 1.60 83 1008.4
20260905165918 25 81 11.3 17.7 0.00 0.00 1.60 85 1008.4
20260905165501 25 81 11.3 17.7 0.00 0.00 1.60 85 1008.4
20260905165045 25 81 11.3 17.7 0.00 0.00 1.60 85 1008.4
20260905164629 25 81 11.3 17.7 0.00 0.00 1.60 85 1008.4
20260905162736 25 9 0.0 12.9 0.00 0.00 1.60 87 1009.4
20260905162306 25 9 0.0 12.9 0.00 0.00 1.60 87 1009.4
20260905161847 25 9 0.0 12.9 0.00 0.00 1.60 87 1009.4
20260905161432 23 355 0.0 4.8 0.00 0.00 1.60 94 1009.4
20260905161000 23 355 0.0 4.8 0.00 0.00 1.60 94 1009.4
20260905160546 23 355 0.0 4.8 0.00 0.00 1.60 94 1009.4
20260905160116 23 355 0.0 4.8 0.00 0.00 1.60 94 1009.4
20260905155541 23 259 0.0 0.0 0.00 0.00 1.60 97 1009.4
20260905154209 22 259 0.0 0.0 0.00 0.00 1.60 99 1009.1
20260905153736 22 259 0.0 0.0 0.00 0.00 1.60 99 1009.1
20260905153318 22 259 0.0 0.0 0.00 0.00 1.60 99 1009.1
20260905152901 22 250 1.6 6.4 0.00 0.00 1.60 100 1009.4
20260905152444 22 250 1.6 6.4 0.00 0.00 1.60 100 1009.4
20260905152027 22 250 1.6 6.4 0.00 0.00 1.60 100 1009.4
20260905151555 22 202 0.0 1.6 0.00 0.00 1.60 100 1008.4
20260905151140 22 202 0.0 1.6 0.00 0.00 1.60 100 1008.4
20260905150722 22 202 0.0 1.6 0.00 0.00 1.60 100 1008.4
20260905150305 22 202 0.0 1.6 0.00 0.00 1.60 100 1008.4
20260905145746 22 287 3.2 9.7 0.00 0.00 1.60 100 1008.1
20260905145328 22 287 3.2 9.7 0.00 0.00 1.60 100 1008.1
20260905144912 22 287 3.2 9.7 0.00 0.00 1.60 100 1008.1
20260905144455 22 182 1.6 3.2 0.00 0.00 1.60 100 1008.1
20260905144040 22 182 1.6 3.2 0.00 0.00 1.60 100 1008.1
20260905142719 22 82 9.7 9.7 0.00 0.00 1.60 100 1007.7
20260905142305 22 82 9.7 9.7 0.00 0.00 1.60 100 1007.7
20260905141844 22 82 9.7 9.7 0.00 0.00 1.60 100 1007.7
20260905141429 21 178 0.0 9.7 0.00 0.00 1.60 100 1008.8
20260905140527 21 178 0.0 9.7 0.00 0.00 1.60 100 1008.8
20260905140110 21 178 0.0 9.7 0.00 0.00 1.60 100 1008.8
20260905135652 21 103 1.6 8.0 0.00 0.00 1.60 100 1008.8
20260905135234 21 103 1.6 8.0 0.00 0.00 1.60 100 1008.8
20260905134802 21 103 1.6 8.0 0.00 0.00 1.60 100 1008.8
20260905134242 21 84 0.0 8.0 0.00 0.00 1.60 100 1008.8
20260905132919 21 138 0.0 0.0 0.00 0.00 1.60 100 1009.8
20260905132448 21 138 0.0 0.0 0.00 0.00 1.60 100 1009.8
20260905132017 21 138 0.0 0.0 0.00 0.00 1.60 100 1009.8
20260905131546 21 138 0.0 0.0 0.00 0.00 1.57 100 1009.4
20260905131129 21 138 0.0 0.0 0.00 0.00 1.57 100 1009.4
20260905130713 21 138 0.0 0.0 0.00 0.00 1.57 100 1009.4
20260905125822 21 138 0.0 4.8 0.00 0.00 1.57 99 1009.8